Location: Cimitile
(40.9333°N, 14.5167°E)
Time: 11:00:53
(UTC+00:00)

Daily predictions for brighter satellites

Satellite Brightness Start Highest point End
(mag) Time Altitude Azimuth Time Altitude Azimuth Time Altitude Azimuth
Cosmos 2333 Rocket 2.5 17:57:47 10° SSW 18:03:27 76° WNW 18:09:08 10° NNE
COBE Rocket 4.0 18:02:39 10° NNE 18:07:35 65° E 18:12:36 10° S
NOSS 3-2 (A) 4.4 18:02:37 10° NNW 18:09:54 55° NE 18:18:34 10° SE
BREEZE-M DEB (TANK) 4.3 18:03:44 10° WNW 18:14:16 55° SW 18:17:14 10° SSE
Cosmos 2181 Rocket 4.0 18:08:26 10° N 18:14:33 71° E 18:20:40 10° SSE
Cosmos 1295 Rocket 4.5 18:10:40 10° S 18:16:44 67° E 18:22:57 10° NNE
SJ-6B 2.6 18:13:45 10° SSE 18:17:25 86° ENE 18:21:06 10° N
Geosat 4.5 18:13:24 10° NE 18:18:03 37° ESE 18:22:38 10° S
Cosmos 1470 Rocket 4.0 18:13:58 10° SSE 18:18:03 40° E 18:22:08 10° NNE
Meteor 2-5 Rocket 4.0 18:12:49 10° N 18:18:09 46° ENE 18:23:29 10° SSE
ARIANE 6 FM1 Upper Stage 2.6 18:16:48 10° SW 18:20:58 88° WNW 18:25:03 10° NE
Nadezhda 3 Rocket 4.4 18:15:32 10° N 18:21:22 42° ENE 18:27:08 10° SSE
ERS-1 Rocket 4.2 18:17:58 10° ESE 18:21:53 24° ENE 18:25:48 10° NNE
Lacrosse 5 rocket 1.2 18:19:31 10° SSW 18:22:30 35° SE 18:25:28 10° ENE
Exosat Rocket 4.5 18:18:34 10° N 18:24:14 50° ENE 18:31:57 10° SE
BREEZE M DEB (TANK) 3.4 18:21:13 10° WNW 18:28:11 48° SW 18:31:00 10° SSE
Cosmos 1943 Rocket 4.2 18:25:56 10° NNE 18:28:13 12° NE 18:30:30 10° ENE
Okean 1-7 2.8 18:24:43 10° N 18:28:51 88° E 18:32:56 10° S
Cosmos 1328 3.7 18:25:41 10° NNW 18:29:12 74° W 18:32:42 10° S
Cosmos 2154 Rocket 4.0 18:25:26 10° S 18:31:38 67° E 18:37:56 10° NNE
ATLAS 3B R/B 4.0 18:25:36 10° WSW 18:32:58 51° NW 18:40:39 10° NNE
Cosmos 1862 Rocket 3.8 18:30:02 10° N 18:34:28 75° W 18:38:50 10° S
Cosmos 1707 Rocket 3.6 18:30:46 10° N 18:35:04 80° W 18:39:21 10° S
Cosmos 1441 Rocket 2.8 18:32:52 10° N 18:36:15 86° ENE 18:39:36 10° S
OPS 8737 4.5 18:34:27 10° NW 18:37:29 65° WSW 18:40:17 13° SSE
Aureole 1 Rocket 3.8 18:34:38 10° SW 18:37:57 41° WNW 18:40:54 10° N
Helios 1A Rocket 2.3 18:37:44 10° NNE 18:40:55 55° ESE 18:44:03 10° S
Cosmos 2360 Rocket 2.9 18:37:01 10° SW 18:42:33 59° WNW 18:48:08 10° NNE
Cosmos 1844 Rocket 3.8 18:37:31 10° NW 18:42:46 43° WSW 18:47:58 10° S
Okean-O 4.4 18:43:16 14° E 18:44:18 15° ENE 18:46:45 10° NNE
Cosmos 2228 Rocket 3.1 18:40:27 10° N 18:44:56 88° W 18:49:22 10° S
Meteor 1-16 Rocket 4.3 18:41:00 10° S 18:46:49 64° E 18:52:39 10° NNE
Cosmos 2184 Rocket 4.2 18:43:25 10° S 18:49:48 81° W 18:56:12 10° N
Cosmos 2098 4.0 18:46:58 10° S 18:50:09 77° E 18:53:06 10° N
Cosmos 2322 Rocket 3.3 18:45:11 10° SW 18:50:33 46° WNW 18:55:58 10° NNE
BlueWalker 3 3.2 18:47:21 10° WNW 18:50:34 31° SW 18:53:11 14° SSE
Cosmos 1633 Rocket 4.0 18:49:14 10° SSW 18:53:29 50° W 18:57:45 10° N
ADEOS 4.1 18:52:04 20° SE 18:55:10 41° ENE 19:00:02 10° N
Cosmos 1869 Rocket 4.3 18:53:53 23° SE 18:55:31 31° E 18:59:23 10° NNE
Feng Yun 1-1 Rocket 4.3 18:51:36 13° SSE 18:56:30 62° ENE 19:01:57 10° N
Terra 2.2 18:55:40 23° SE 18:58:07 42° ENE 19:02:33 10° N
BREEZE-M DEB (TANK) 3.6 18:57:28 10° W 18:59:31 30° NNW 19:02:15 10° NE
MOS 1 4.4 18:56:01 17° SE 19:00:17 58° ENE 19:05:49 10° N
CSL-04 Debris 4.1 18:55:19 10° SSE 19:00:40 86° WSW 19:06:04 10° NNW
Cosmos 858 Rocket 4.4 18:55:49 10° S 19:01:01 69° ESE 19:06:16 10° NNE
CZ-4 R/B 1.2 19:00:06 16° SSE 19:03:05 88° WSW 19:06:52 10° NNW
Cosmos 2237 Rocket 4.2 19:05:50 11° ENE 19:05:50 11° ENE 19:06:20 10° ENE
Cosmos 1898 Rocket 4.2 18:58:22 10° SSW 19:03:31 58° WNW 19:08:40 10° NNE
Atlas Centaur 2 4.1 18:59:23 10° WSW 19:03:31 19° SSW 19:07:06 13° SSE
Resurs 01 Rocket 4.4 19:02:16 10° SW 19:05:14 18° W 19:08:12 10° NW
Cosmos 2341 Rocket 4.4 19:01:57 17° SSE 19:06:13 41° E 19:12:00 10° NNE
Cosmos 2322 3.9 19:01:05 10° S 19:06:32 49° ESE 19:12:01 10° NE
Okean O Rocket 2.7 19:06:43 25° E 19:07:19 26° ENE 19:10:56 10° NNE
SL-08 R/B 3.5 19:06:52 10° NNE 19:11:38 51° E 19:15:08 18° S
Tiangong 0.0 19:15:13 10° WSW 19:17:19 17° SSW 19:17:36 17° SSW
SPOT 5 3.9 19:13:48 10° S 19:18:26 44° W 19:22:51 10° NNW
Cosmos 2219 Rocket 3.2 19:13:42 10° SW 19:19:04 49° WNW 19:24:30 10° NNE
Cosmos 1680 Rocket 3.6 19:15:32 10° N 19:20:39 56° ENE 19:22:22 38° SE
SL-24 R/B 4.3 19:17:20 10° NNE 19:22:47 84° ESE 19:27:22 10° SSW
Meteor 1-31 Rocket 3.9 19:20:48 14° SSW 19:23:31 36° W 19:26:48 10° NNW
Cosmos 1937 Rocket 4.4 19:19:57 10° SW 19:25:05 51° WNW 19:30:15 10° N
SL-8 Rocket 3.9 19:29:04 18° S 19:33:44 71° E 19:39:59 10° NNE
SL-24 R/B - RUBIN 2 3.8 19:30:22 10° NNW 19:34:43 53° NE 19:35:17 50° E
COSMOS 2428 2.6 19:30:30 10° SSW 19:36:12 75° ESE 19:41:56 10° NNE
Cosmos 923 Rocket 4.1 19:31:20 10° NNW 19:36:38 76° WSW 19:38:51 35° S
NOSS 0 Rocket 4.0 19:32:53 20° S 19:37:06 51° ESE 19:43:07 10° NE
CZ-4B R/B 3.3 19:35:07 28° S 19:38:06 79° WSW 19:43:43 10° NNW
Cosmos 2112 Rocket 3.9 19:33:02 10° NNW 19:38:14 67° ENE 19:39:17 53° SE
MetOp-B 4.2 19:35:41 29° S 19:38:32 77° WSW 19:43:55 10° NNW
NOSS 2-3 (E) 4.4 19:35:01 10° NNW 19:40:18 65° NE 19:42:20 44° ESE
Cosmos 2366 rocket 3.8 19:40:01 26° S 19:43:44 76° E 19:49:52 10° N
Ariane Rocket 4.2 19:46:48 26° NE 19:46:48 26° NE 19:50:26 10° N
Cosmos 2278 Rocket 2.9 19:42:05 10° N 19:47:19 37° ENE 19:47:49 36° ENE
NOSS 3-2 (C) 4.1 19:44:58 10° NW 19:52:38 88° WSW 19:56:23 40° SSE
USA 32 3.9 19:53:57 67° SE 19:54:21 71° E 19:59:34 10° N
Spot 2 Rocket 3.3 19:53:55 68° SE 19:54:32 83° ENE 19:59:35 10° NNW
BREEZE-M DEB (TANK) 4.0 19:55:51 10° NW 19:58:34 30° NNE 19:59:33 27° NE
Lacrosse 5 rocket 3.3 19:56:43 10° W 19:59:12 20° NW 20:00:41 15° N
ERS-1 Rocket 4.0 19:57:46 23° SSW 20:00:18 40° W 20:05:01 10° NNW
NOSS 2-3 (D) 4.3 19:57:13 10° NW 20:02:38 87° ENE 20:03:54 60° SE
Cosmos 1809 Rocket 4.3 19:57:42 10° N 20:03:52 85° E 20:05:08 59° SSE
Cosmos 2218 Rocket 4.0 20:06:05 31° SSW 20:09:10 75° W 20:15:19 10° N
Cosmos 1943 Rocket 2.1 20:07:20 10° NNW 20:12:59 71° ENE 20:12:59 71° ENE
Meteor 2-15 4.4 20:11:09 43° SSW 20:13:17 78° W 20:19:23 10° N
Meteor 2-15 Rocket 4.2 20:13:49 74° SE 20:14:08 76° E 20:20:13 10° N
MOS 1-B 4.5 20:14:20 56° SSW 20:15:27 69° WSW 20:21:13 10° NNW
Cosmos 1733 Rocket 4.1 20:18:21 39° N 20:18:21 39° N 20:21:07 10° N
Meteor 1-11 4.2 20:11:29 10° N 20:16:33 66° NE 20:16:33 66° NE
USA 59 Rocket 2.5 20:17:08 10° NNE 20:17:17 11° NNE 20:17:17 11° NNE
SeaSat 1 4.3 20:19:54 20° NE 20:19:54 20° NE 20:22:45 10° N
CZ-4B R/B 3.9 20:20:21 50° NNE 20:20:21 50° NNE 20:24:06 10° N
Okean-O 3.3 20:20:36 50° WNW 20:20:36 50° WNW 20:24:24 10° NNW
NOSS 3-4 (A) 4.3 20:23:14 32° NE 20:23:14 32° NE 20:26:13 10° NE
NOSS 3-4 (C) 4.3 20:23:46 31° NE 20:23:46 31° NE 20:26:44 10° NE
Cosmos 1821 Rocket 4.0 20:22:24 60° SSW 20:23:36 81° W 20:29:56 10° N
Cosmos 1048 Rocket 4.3 20:25:40 10° NNW 20:29:52 61° NNW 20:29:52 61° NNW
Terra 4.0 20:34:16 17° WSW 20:35:49 19° W 20:39:10 10° NW
Timation 2 Rocket 4.0 20:30:11 10° NNW 20:36:19 77° NE 20:36:19 77° NE
Okean O Rocket 3.4 20:43:57 27° W 20:43:57 27° W 20:47:09 10° NW
Cosmos 2237 Rocket 2.7 20:47:31 56° N 20:47:31 56° N 20:52:09 10° NNE
Cosmos 1980 4.1 20:47:57 59° NNW 20:47:57 59° NNW 20:52:54 10° NNE
ASTEX 1 4.5 20:50:47 41° WNW 20:50:47 41° WNW 20:54:30 10° NNW
Cosmos 2369 Rocket 3.9 21:18:01 10° N 21:20:57 24° NNE 21:20:57 24° NNE
Cosmos 2278 Rocket 3.9 21:26:18 10° NW 21:29:39 27° WNW 21:29:39 27° WNW
USA 238 DEB 4.2 21:25:44 10° NW 21:32:16 63° WNW 21:32:16 63° WNW
USA 238 4.2 21:25:54 10° NW 21:32:26 63° WNW 21:32:26 63° WNW
SL-16 R/B 4.2 21:58:05 23° NNE 21:58:05 23° NNE 22:00:08 10° NNE
ACS3 Solar Sail 3.4 23:37:25 10° NNE 23:40:25 27° NE 23:40:25 27° NE
